Petersburg, AK

10:57 AM AKDT on April 29, 2017 (GMT -0800)
Johnson Petersburg

Weather History for PAPG - May, 2013

Change the Weather History Date:

Saturday, May 18, 2013

  Actual Average Record
Temperature  
Mean Temperature 44 °F -  
Max Temperature 50 °F 52 °F 69 °F (2015)
Min Temperature 39 °F 39 °F 28 °F (1989)
Degree Days  
Heating Degree Days 20    
Moisture  
Dew Point 40 °F    
Average Humidity 78    
Maximum Humidity 93    
Minimum Humidity 53    
Precipitation  
Precipitation 0.43 in - - ()
Sea Level Pressure  
Sea Level Pressure 29.99 in    
Wind  
Wind Speed 4 mph (SSW)    
Max Wind Speed 13 mph    
Max Gust Speed 22 mph    
Visibility 8 miles    
Events Rain    
Averages and records for this station are not official NWS values.
T = Trace of Precipitation, MM = Missing Value Source: NWS Daily Summary

Daily Weather History Graph

Daily Weather History Graph

Search for Another Location

Airport or City:

Trip Planner

Search our weather history database for the weather conditions in past years. The results will help you decide how hot, cold, wet, or windy it might be!

Date:

Astronomy

May. 18, 2013 Rise Set
Actual Time 4:28 AM AKDT 9:09 PM AKDT
Civil Twilight 3:34 AM AKDT 10:03 PM AKDT
Nautical Twilight 2:02 AM AKDT 11:38 PM AKDT
Astronomical Twilight Sun does not set Sun does not set
Moon 1:00 PM AKDT (5/18) 1:48 AM AKDT (5/18)
Length of Visible Light 18h 29m
Length of Day
16h 41m
First Quarter, 56% of the Moon is Illuminated
May 18
First Quarter
May 24
Full
May 31
Last Quarter
Jun 8
New
Jun 16
First Quarter

Hourly Weather History & Observations

Time (AKDT) Temp. Windchill Dew Point Humidity Pressure Visibility Wind Dir Wind Speed Gust Speed Precip Events Conditions
12:16 AM 48.2 °F - 44.6 °F 87% 29.78 in 9.0 mi SSW 3.5 mph - 0.03 in   Overcast
12:36 AM 48.2 °F - 46.4 °F 93% 29.78 in 10.0 mi Calm Calm - 0.05 in   Overcast
12:56 AM 48.2 °F - 44.6 °F 87% 29.78 in 10.0 mi Calm Calm - 0.07 in   Overcast
1:16 AM 48.2 °F - 44.6 °F 87% 29.79 in 10.0 mi Calm Calm - 0.03 in   Overcast
1:36 AM 48.2 °F - 46.4 °F 93% 29.79 in 8.0 mi Calm Calm - 0.05 in   Overcast
1:56 AM 48.2 °F - 44.6 °F 87% 29.79 in 10.0 mi SW 4.6 mph - 0.06 in   Overcast
2:16 AM 48.2 °F - 44.6 °F 87% 29.79 in 5.0 mi South 3.5 mph - N/A   Overcast
2:36 AM 48.2 °F - 46.4 °F 93% 29.80 in 7.0 mi Calm Calm - 0.03 in   Overcast
2:56 AM 48.2 °F - 44.6 °F 87% 29.80 in 5.0 mi WNW 3.5 mph - 0.04 in   Overcast
3:16 AM 48.2 °F - 44.6 °F 87% 29.80 in 9.0 mi West 4.6 mph - 0.01 in   Overcast
3:36 AM 46.4 °F 45.2 °F 44.6 °F 93% 29.80 in 7.0 mi WNW 3.5 mph - 0.01 in   Mostly Cloudy
3:56 AM 46.4 °F 45.2 °F 44.6 °F 93% 29.81 in 5.0 mi West 3.5 mph - 0.02 in   Overcast
4:16 AM 46.4 °F - 44.6 °F 93% 29.81 in 5.0 mi Calm Calm - 0.01 in   Overcast
4:36 AM 46.4 °F 45.2 °F 44.6 °F 93% 29.81 in 10.0 mi West 3.5 mph - 0.01 in   Overcast
4:56 AM 46.4 °F 45.2 °F 44.6 °F 93% 29.81 in 10.0 mi WSW 3.5 mph - 0.01 in   Overcast
5:16 AM 46.4 °F - 44.6 °F 93% 29.81 in 9.0 mi Calm Calm - 0.01 in   Overcast
5:36 AM 46.4 °F - 44.6 °F 93% 29.81 in 5.0 mi Calm Calm - 0.04 in   Overcast
6:53 AM 46.4 °F - 39.2 °F 76% 29.85 in 10.0 mi Calm Calm - N/A   Overcast
6:56 AM - - - N/A% - - Calm Calm - N/A   Unknown
7:10 AM 46.4 °F - 39.2 °F 76% 29.85 in 10.0 mi Calm Calm - N/A   Overcast
7:36 AM 48.2 °F - 44.6 °F 87% 29.85 in 10.0 mi Calm Calm - N/A   Overcast
7:56 AM 48.2 °F - 44.6 °F 87% 29.85 in 7.0 mi East 5.8 mph - N/A   Overcast
8:16 AM 48.2 °F - 44.6 °F 87% 29.86 in 7.0 mi ESE 5.8 mph - N/A   Overcast
8:36 AM 48.2 °F - 42.8 °F 82% 29.86 in 7.0 mi ESE 8.1 mph - N/A   Overcast
8:56 AM 48.2 °F - 42.8 °F 82% 29.87 in 5.0 mi ESE 6.9 mph - 0.03 in   Overcast
9:16 AM 48.2 °F - 44.6 °F 87% 29.87 in 5.0 mi ESE 4.6 mph - N/A   Overcast
9:36 AM 48.2 °F - 44.6 °F 87% 29.89 in 5.0 mi SSW 5.8 mph - 0.03 in   Overcast
9:56 AM 48.2 °F - 42.8 °F 82% 29.89 in 7.0 mi South 5.8 mph - 0.05 in   Overcast
10:16 AM 48.2 °F - 42.8 °F 82% 29.90 in 7.0 mi SSE 8.1 mph - N/A   Overcast
10:36 AM 48.2 °F - 42.8 °F 82% 29.91 in 7.0 mi South 10.4 mph 16.1 mph 0.01 in   Overcast
10:56 AM 48.2 °F - 41.0 °F 76% 29.92 in 5.0 mi South 8.1 mph - 0.04 in   Overcast
11:16 AM 48.2 °F - 41.0 °F 76% 29.93 in 5.0 mi Calm Calm - 0.01 in   Overcast
11:36 AM 46.4 °F 44.3 °F 42.8 °F 87% 29.94 in 5.0 mi NNW 4.6 mph - 0.01 in   Overcast
11:56 AM 46.4 °F 42.4 °F 42.8 °F 87% 29.95 in 7.0 mi SW 8.1 mph - 0.04 in   Overcast
12:16 PM 46.4 °F 41.5 °F 39.2 °F 76% 29.96 in 7.0 mi SSW 10.4 mph - 0.01 in   Overcast
12:36 PM 46.4 °F 42.9 °F 42.8 °F 87% 29.97 in 7.0 mi SSW 6.9 mph - 0.02 in   Overcast
12:56 PM 46.4 °F 42.9 °F 42.8 °F 87% 29.98 in 7.0 mi SW 6.9 mph - 0.02 in   Overcast
1:16 PM 46.4 °F 43.5 °F 42.8 °F 87% 29.99 in 7.0 mi SW 5.8 mph - 0.01 in   Overcast
1:36 PM 48.2 °F - 42.8 °F 82% 30.00 in 7.0 mi SSW 5.8 mph - 0.01 in   Overcast
1:56 PM 48.2 °F - 42.8 °F 82% 30.01 in 7.0 mi South 6.9 mph - 0.01 in   Mostly Cloudy
2:16 PM 50.0 °F - 41.0 °F 71% 30.01 in 7.0 mi SSW 8.1 mph - N/A   Mostly Cloudy
2:36 PM 50.0 °F - 41.0 °F 71% 30.03 in 7.0 mi SSW 5.8 mph - N/A   Mostly Cloudy
2:56 PM 50.0 °F - 41.0 °F 71% 30.04 in 7.0 mi South 3.5 mph - N/A   Mostly Cloudy
3:16 PM 50.0 °F - 39.2 °F 66% 30.05 in 7.0 mi SSW 6.9 mph - N/A   Mostly Cloudy
3:36 PM 48.2 °F - 42.8 °F 82% 30.06 in 7.0 mi South 6.9 mph - N/A   Mostly Cloudy
3:56 PM 50.0 °F - 39.2 °F 66% 30.07 in 7.0 mi SSW 6.9 mph - N/A   Mostly Cloudy
4:16 PM 50.0 °F - 41.0 °F 71% 30.08 in 10.0 mi SSW 8.1 mph - N/A   Mostly Cloudy
4:36 PM - - - N/A% - 10.0 mi North - - N/A   Mostly Cloudy
4:46 PM 50.0 °F - 41.0 °F 71% 30.09 in 10.0 mi SE 8.1 mph - N/A Rain Light Rain Showers
5:46 PM 48.2 °F - 39.2 °F 71% 30.12 in 10.0 mi SSW 8.1 mph - N/A Rain Light Rain Showers
6:16 PM 48.2 °F - 33.8 °F 58% 30.15 in 10.0 mi SW 12.7 mph 21.9 mph N/A   Mostly Cloudy
6:36 PM 46.4 °F 42.9 °F 33.8 °F 62% 30.16 in 10.0 mi WSW 6.9 mph - N/A   Mostly Cloudy
6:56 PM 46.4 °F 41.9 °F 33.8 °F 62% 30.17 in 10.0 mi SW 9.2 mph - N/A   Mostly Cloudy
7:16 PM 44.6 °F 39.7 °F 30.2 °F 57% 30.19 in 10.0 mi SW 9.2 mph - N/A   Mostly Cloudy
7:36 PM 44.6 °F 40.2 °F 30.2 °F 57% 30.20 in 10.0 mi South 8.1 mph - N/A   Mostly Cloudy
7:56 PM 44.6 °F 38.8 °F 30.2 °F 57% 30.21 in 10.0 mi SSW 11.5 mph - N/A   Mostly Cloudy
8:16 PM 44.6 °F 43.1 °F 28.4 °F 53% 30.22 in 10.0 mi SW 3.5 mph - N/A   Mostly Cloudy
8:36 PM 42.8 °F 37.5 °F 28.4 °F 57% 30.23 in 10.0 mi SSW 9.2 mph - N/A   Mostly Cloudy
8:56 PM 42.8 °F 37.5 °F 30.2 °F 61% 30.25 in - South 9.2 mph - N/A   Mostly Cloudy
9:16 PM 42.8 °F 38.6 °F 30.2 °F 61% 30.26 in 10.0 mi SSW 6.9 mph - N/A   Mostly Cloudy
9:36 PM 42.8 °F 41.1 °F 30.2 °F 61% 30.28 in 10.0 mi South 3.5 mph - N/A   Mostly Cloudy
9:56 PM 42.8 °F 39.3 °F 28.4 °F 57% 30.28 in 10.0 mi South 5.8 mph - N/A   Mostly Cloudy
10:16 PM 42.8 °F 39.3 °F 30.2 °F 61% 30.29 in 10.0 mi South 5.8 mph - N/A   Overcast
10:36 PM 41.0 °F 37.1 °F 30.2 °F 65% 30.30 in 10.0 mi SSW 5.8 mph - N/A   Overcast
10:56 PM 41.0 °F 38.0 °F 30.2 °F 65% 30.31 in 10.0 mi SW 4.6 mph - N/A   Overcast
11:16 PM 39.2 °F 35.9 °F 33.8 °F 81% 30.31 in 10.0 mi SSE 4.6 mph - N/A   Overcast
11:36 PM 41.0 °F 38.0 °F 33.8 °F 76% 30.31 in 10.0 mi SSW 4.6 mph - N/A   Overcast
11:56 PM 42.8 °F 40.1 °F 30.2 °F 61% 30.32 in 10.0 mi South 4.6 mph - N/A   Overcast